FENGYUN 1C DEB

Satellite information

Favourite Embed

Satellite Type and Status

DEBRISIN ORBIT

Key statistics

Satellite FENGYUN 1C DEB at a glance.

Uptime

9666

Days in orbit

Revolutions

≈ 13.9

Per day

Orbit

SSO

Sun Synchronous Orbit

Inclination

96.1

Latest

Satellite identification and parameters

Extended collection of information and parameters for FENGYUN 1C DEB.

Object identification

Identified? True

Debris? True

Object name: FENGYUN 1C DEB

International designator: 1999-025DXR

Object number (NORAD): 36647

Object ID (CCSDS): 36647

Country: PEOPLES REPUBLIC OF CHINA (PRC)

Current information (Y/N): Y

RCS size: SMALL

Orbital parameters

Period: 103.714 minutes

Inclination: 96.1264 deg

SMA: 7312.239 km

Apoapsis: 1109.81 km

Periapsis: 758.399 km

RAAN: 95.7592 deg

Eccentricy: 0.024029

Argument of periapsis: 81.0931 deg

Mean anomaly: 281.7354 deg

Mean motion: 13.88440115 rev/day

Mean motion (dot): 0.00003673 rev/day2

B* drag term: 0.0024442378 1/REarth

Two-line elements (TLE)

Creation date: Oct. 26, 2025, 2:54 a.m.

Reference frame: TEME

Reference center: EARTH

Epoch: Oct. 25, 2025, 4:20 p.m. UTC

TLE line 0: 0 FENGYUN 1C DEB

TLE line 1: 1 36647U 99025DXR 25298.68080440 .00003673 00000-0 24442-2 0 9994

TLE line 2: 2 36647 96.1264 95.7592 0240290 81.0931 281.7354 13.88440115297454

Live tracking on map

Real-time ground track for satellite FENGYUN 1C DEB.

In-orbit conjunctions

A list of the most updated potential collisions computed for object FENGYUN 1C DEB.

Target Orbit TCA Probability of collision Miss distance Type
DMSP 5D-3 F17 DEB SSO 2024-12-12 05:27:06 0.0001117194 286.0 (m) DEBRIS
CZ-4C R/B LEO 2024-07-01 06:57:57 0.0001618129 588.0 (m) ROCKET BODY

Associated space launch

Chinese polar orbiting meteorological satellite

FENGYUN 1C DEB was lifted into orbit during the mission ‘Long March 4B | Feng Yun 1C’, on board a Long March 4B space rocket.

The launch took place on May 10, 1999, 1:33 a.m. from Launch Complex 7.

For more information about the launch, click the button.

Launch to space Long March 4B | Feng Yun 1C
Long March 4B | Feng Yun 1C

Agency: N/A

Status: Launch Successful

Launch date: May 10, 1999, 1:33 a.m. UTC

Rocket: Long March 4B

Launch pad: Launch Complex 7

Location: Taiyuan Satellite Launch Center, People's Republic of China

...

Latest news about this satellite

There are no fresh news available about this satellite. Check back as we update our databases every day.


Newsletter sign-up

Weekly statistics, charts and insights to help you stay on top of the space industry.